EN

Hourly Weather Manika

Today, 2 March, Tuesday

Time Temperature Precipitation Wind Pressure Humidity
00:00 +19°C° 0.1 mm 1 mps 679 mmHg 95%
01:00 +19°C° 0.1 mm 1 mps 679 mmHg 96%
02:00 +19°C° 0 mm 1 mps 679 mmHg 97%
03:00 +19°C° 0.1 mm 1 mps 678 mmHg 97%
04:00 +19°C° 0.1 mm 1 mps 678 mmHg 97%
05:00 +17°C° 0.1 mm 0 mps 678 mmHg 97%
06:00 +20°C° 0.1 mm 1 mps 678 mmHg 96%
07:00 +20°C° 0.1 mm 1 mps 679 mmHg 95%
08:00 +20°C° 0 mm 1 mps 679 mmHg 95%
09:00 +20°C° 0.1 mm 2 mps 679 mmHg 91%
10:00 +21°C° 0.1 mm 2 mps 679 mmHg 88%
11:00 +21°C° 0.1 mm 2 mps 679 mmHg 84%
12:00 +22°C° 0.1 mm 3 mps 679 mmHg 78%
13:00 +24°C° 0.1 mm 3 mps 679 mmHg 71%
14:00 +25°C° 0 mm 2 mps 678 mmHg 65%
15:00 +25°C° 0 mm 3 mps 678 mmHg 69%
16:00 +24°C° 0 mm 3 mps 677 mmHg 72%
17:00 +24°C° 0 mm 3 mps 677 mmHg 75%
18:00 +21°C° 0 mm 2 mps 677 mmHg 81%
19:00 +21°C° 0 mm 1 mps 677 mmHg 88%
20:00 +19°C° 0 mm 1 mps 678 mmHg 95%
21:00 +19°C° 0 mm 1 mps 678 mmHg 95%
22:00 +19°C° 0 mm 1 mps 678 mmHg 95%
23:00 +19°C° 0 mm 1 mps 678 mmHg 96%

Tomorrow, 3 March, Wednesday

Time Temperature Precipitation Wind Pressure Humidity
00:00 +19°C° 0 mm 1 mps 678 mmHg 96%
01:00 +19°C° 0 mm 1 mps 677 mmHg 97%
02:00 +19°C° 0 mm 1 mps 677 mmHg 97%
03:00 +19°C° 0 mm 1 mps 677 mmHg 96%
04:00 +19°C° 0 mm 1 mps 677 mmHg 95%
05:00 +19°C° 0 mm 1 mps 677 mmHg 95%
06:00 +19°C° 0 mm 1 mps 677 mmHg 93%
07:00 +20°C° 0 mm 1 mps 677 mmHg 92%
08:00 +20°C° 0 mm 1 mps 678 mmHg 91%
09:00 +21°C° 0 mm 1 mps 678 mmHg 87%
10:00 +22°C° 0 mm 1 mps 678 mmHg 84%
11:00 +23°C° 0 mm 1 mps 678 mmHg 80%
12:00 +24°C° 0.1 mm 2 mps 678 mmHg 77%
13:00 +25°C° 0.1 mm 2 mps 677 mmHg 73%
14:00 +25°C° 0.1 mm 2 mps 677 mmHg 69%
15:00 +25°C° 0.1 mm 2 mps 676 mmHg 71%
16:00 +25°C° 0.1 mm 2 mps 676 mmHg 73%
17:00 +25°C° 0.1 mm 3 mps 676 mmHg 75%
18:00 +23°C° 0 mm 2 mps 676 mmHg 81%
19:00 +21°C° 0 mm 1 mps 676 mmHg 88%
20:00 +20°C° 0 mm 1 mps 676 mmHg 94%
21:00 +17°C° 0 mm 0 mps 676 mmHg 95%
22:00 +17°C° 0 mm 0 mps 676 mmHg 95%
23:00 +17°C° 0 mm 0 mps 676 mmHg 96%

Day after tomorrow, 4 March, Thursday

Time Temperature Precipitation Wind Pressure Humidity
00:00 +17°C° 0 mm 0 mps 676 mmHg 96%
01:00 +17°C° 0 mm 0 mps 676 mmHg 97%
02:00 +17°C° 0 mm 0 mps 675 mmHg 98%
03:00 +17°C° 0 mm 0 mps 675 mmHg 97%
04:00 +17°C° 0 mm 0 mps 675 mmHg 97%
05:00 +18°C° 0 mm 0 mps 675 mmHg 96%
06:00 +18°C° 0 mm 0 mps 676 mmHg 93%
07:00 +19°C° 0 mm 0 mps 676 mmHg 90%
08:00 +21°C° 0 mm 1 mps 676 mmHg 88%
09:00 +23°C° 0 mm 1 mps 676 mmHg 83%
10:00 +24°C° 0 mm 1 mps 677 mmHg 77%
11:00 +25°C° 0 mm 1 mps 677 mmHg 72%
12:00 +26°C° 0 mm 2 mps 676 mmHg 70%
13:00 +26°C° 0 mm 2 mps 676 mmHg 67%
14:00 +27°C° 0 mm 2 mps 675 mmHg 64%
15:00 +27°C° 0 mm 2 mps 675 mmHg 67%
16:00 +26°C° 0 mm 2 mps 675 mmHg 70%
17:00 +26°C° 0 mm 2 mps 675 mmHg 73%
18:00 +24°C° 0 mm 2 mps 675 mmHg 80%
19:00 +22°C° 0 mm 1 mps 675 mmHg 87%
20:00 +21°C° 0 mm 1 mps 676 mmHg 94%
21:00 +18°C° 0 mm 0 mps 676 mmHg 95%
22:00 +18°C° 0 mm 0 mps 676 mmHg 95%
23:00 +17°C° 0 mm 0 mps 676 mmHg 96%

5 March, Friday

Time Temperature Precipitation Wind Pressure Humidity
00:00 +17°C° 0 mm 0 mps 676 mmHg 96%
01:00 +17°C° 0 mm 0 mps 675 mmHg 97%
02:00 +17°C° 0 mm 0 mps 675 mmHg 97%
03:00 +17°C° 0 mm 0 mps 675 mmHg 97%
04:00 +17°C° 0 mm 0 mps 675 mmHg 97%
05:00 +17°C° 0 mm 0 mps 675 mmHg 97%
06:00 +18°C° 0 mm 0 mps 676 mmHg 94%
07:00 +19°C° 0 mm 0 mps 676 mmHg 91%
08:00 +20°C° 0 mm 0 mps 677 mmHg 89%
09:00 +23°C° 0 mm 1 mps 677 mmHg 84%
10:00 +24°C° 0 mm 1 mps 677 mmHg 79%
11:00 +25°C° 0 mm 1 mps 677 mmHg 75%
12:00 +26°C° 0 mm 1 mps 677 mmHg 70%
13:00 +27°C° 0 mm 2 mps 676 mmHg 65%
14:00 +28°C° 0 mm 2 mps 676 mmHg 61%
15:00 +28°C° 0.2 mm 2 mps 676 mmHg 66%
16:00 +27°C° 0.2 mm 3 mps 676 mmHg 71%
17:00 +26°C° 0.2 mm 3 mps 676 mmHg 76%
18:00 +24°C° 0.4 mm 2 mps 676 mmHg 82%
19:00 +22°C° 0.4 mm 1 mps 676 mmHg 89%
20:00 +21°C° 0.4 mm 1 mps 677 mmHg 95%
21:00 +18°C° 0.1 mm 0 mps 677 mmHg 96%
22:00 +18°C° 0.1 mm 0 mps 677 mmHg 96%
23:00 +18°C° 0.1 mm 0 mps 678 mmHg 97%

6 March, Saturday

Time Temperature Precipitation Wind Pressure Humidity
00:00 +18°C° 0 mm 0 mps 677 mmHg 97%
01:00 +18°C° 0 mm 0 mps 677 mmHg 97%
02:00 +17°C° 0 mm 0 mps 677 mmHg 97%
03:00 +18°C° 0 mm 0 mps 677 mmHg 97%
04:00 +18°C° 0 mm 0 mps 677 mmHg 97%
05:00 +18°C° 0 mm 0 mps 677 mmHg 97%
06:00 +19°C° 0.1 mm 0 mps 678 mmHg 94%
07:00 +19°C° 0.1 mm 0 mps 679 mmHg 92%
08:00 +22°C° 0.1 mm 1 mps 679 mmHg 89%
09:00 +24°C° 0.4 mm 1 mps 679 mmHg 82%
10:00 +25°C° 0.4 mm 2 mps 679 mmHg 76%
11:00 +26°C° 0.4 mm 2 mps 679 mmHg 69%
12:00 +27°C° 0.6 mm 2 mps 679 mmHg 69%
13:00 +27°C° 0.6 mm 2 mps 678 mmHg 69%
14:00 +27°C° 0.6 mm 3 mps 678 mmHg 69%
15:00 +26°C° 0.7 mm 3 mps 677 mmHg 73%
16:00 +25°C° 0.7 mm 2 mps 677 mmHg 77%
17:00 +25°C° 0.7 mm 2 mps 677 mmHg 81%
18:00 +23°C° 0.1 mm 2 mps 677 mmHg 84%
19:00 +22°C° 0.1 mm 1 mps 678 mmHg 88%
20:00 +21°C° 0.1 mm 1 mps 678 mmHg 91%
21:00 +20°C° 0 mm 1 mps 678 mmHg 93%
22:00 +20°C° 0 mm 1 mps 678 mmHg 94%
23:00 +19°C° 0 mm 1 mps 678 mmHg 96%

7 March, Sunday

Time Temperature Precipitation Wind Pressure Humidity
00:00 +19°C° 0 mm 1 mps 678 mmHg 96%
01:00 +18°C° 0 mm 1 mps 677 mmHg 96%
02:00 +16°C° 0 mm 1 mps 677 mmHg 97%
03:00 +16°C° 0 mm 1 mps 677 mmHg 97%
04:00 +16°C° 0 mm 1 mps 677 mmHg 97%
05:00 +16°C° 0 mm 1 mps 677 mmHg 97%
06:00 +16°C° 0 mm 0 mps 678 mmHg 92%
07:00 +18°C° 0 mm 0 mps 678 mmHg 88%
08:00 +20°C° 0 mm 0 mps 679 mmHg 83%
09:00 +22°C° 0 mm 0 mps 679 mmHg 72%
10:00 +26°C° 0 mm 1 mps 679 mmHg 61%
11:00 +29°C° 0 mm 1 mps 679 mmHg 49%
12:00 +29°C° 0 mm 1 mps 679 mmHg 46%
13:00 +29°C° 0 mm 2 mps 678 mmHg 43%
14:00 +30°C° 0 mm 2 mps 678 mmHg 40%
15:00 +29°C° 0 mm 2 mps 677 mmHg 47%
16:00 +28°C° 0 mm 2 mps 677 mmHg 54%
17:00 +27°C° 0 mm 2 mps 677 mmHg 61%
18:00 +25°C° 0 mm 1 mps 677 mmHg 69%
19:00 +23°C° 0 mm 1 mps 677 mmHg 76%
20:00 +20°C° 0 mm 1 mps 677 mmHg 84%
21:00 +20°C° 0 mm 1 mps 677 mmHg 86%
22:00 +19°C° 0 mm 1 mps 677 mmHg 89%
23:00 +19°C° 0 mm 1 mps 677 mmHg 91%
Show more

We Need Your Consent

Meteoprog and our Service Providers may store and access personal data such as cookies, device identifiers or other similar technologies on your device and process such data to personalise content and ads, as well as provide social media features and to analyse the traffic.

  • Store and/or access information on your device

    Cookies, device identifiers or other information can be stored or accessed on your device for the purposes indicated above.

  • Personalised ads and content, ad and content measurement, audience insights, and products development

    Ads and content can be personalised based on a profile. More data can be added to better personalise ads and content. Ad and content performance can be measured. Insights about the audience who saw the ads and content can be derived. Such data can be used to develop or improve user’s experience, systems and software.

By clicking ‘I Agree’ you will allow the use of indicated cookies, device identifiers, web beacons or other similar technologies. Your settings can be changed in the browser on your device.

For certain purposes, legitimate interests may be relied on, rather than consent. You can read more about this in our Privacy and Cookie Policy.